EW9427 Weather Reports


Display with metric or nautical units.
time (UTC)temp
F
wind
direction
speed
MPH
gust
MPH
rain 1hr
in
rain 24hr
in
rain mn
in
humidity
%
barometer
mb
20260906050011 56 360 12.0 19.0 0.01 0.06 0.06 82 1020.2
20260906044513 57 360 10.0 17.0 0.00 0.05 0.05 82 1020.6
20260906043021 57 5 14.0 21.0 0.00 0.05 0.05 83 1020.0
20260906041508 57 355 12.0 21.0 0.02 0.05 0.05 83 1019.6
20260906040008 57 360 13.0 18.0 0.02 0.05 0.05 82 1019.8
20260906034507 58 360 14.0 19.0 0.02 0.05 0.05 81 1020.1
20260906033006 59 355 6.0 16.0 0.01 0.04 0.04 76 1020.7
20260906031505 60 309 4.0 17.0 0.00 0.03 0.03 68 1021.3
20260906030004 60 341 16.0 27.0 0.00 0.03 0.03 67 1019.3
20260906024502 60 10 17.0 22.0 0.00 0.03 0.03 67 1019.0
20260906023003 60 360 15.0 24.0 0.00 0.03 0.03 67 1018.7
20260906021603 61 10 15.0 23.0 0.00 0.03 0.03 66 1018.7
20260906020059 62 9 12.0 19.0 0.00 0.03 0.03 64 1018.8
20260906014559 63 15 13.0 18.0 0.00 0.03 0.03 62 1018.7
20260906013059 64 9 11.0 16.0 0.00 0.03 0.03 60 1018.6
20260906011559 65 5 11.0 16.0 0.00 0.03 0.03 58 1018.5
20260906010139 66 360 11.0 17.0 0.00 0.03 0.03 57 1018.6
20260906004614 66 19 13.0 19.0 0.00 0.03 0.03 56 1018.7
20260906003056 67 5 13.0 19.0 0.00 0.03 0.03 54 1018.8
20260906001603 69 20 13.0 21.0 0.00 0.03 0.03 53 1018.7
20260906000056 70 37 12.0 19.0 0.00 0.03 0.03 51 1018.7
20260905234555 70 26 11.0 16.0 0.00 0.03 0.03 50 1019.0
20260905233055 71 5 9.0 14.0 0.00 0.03 0.03 48 1018.9
20260905231556 71 32 5.0 12.0 0.00 0.03 0.03 48 1018.9
20260905230053 73 47 10.0 14.0 0.00 0.03 0.03 46 1018.8
20260905224552 72 5 4.0 12.0 0.00 0.03 0.03 45 1018.7
20260905223055 72 68 5.0 12.0 0.00 0.03 0.03 45 1018.7
20260905221554 73 9 4.0 9.0 0.00 0.03 0.03 41 1018.9
20260905220049 73 286 4.0 9.0 0.00 0.03 0.03 40 1019.0
20260905214549 72 253 1.0 5.0 0.00 0.03 0.03 41 1019.0
20260905213048 72 298 2.0 8.0 0.00 0.03 0.03 40 1019.1
20260905211547 72 319 3.0 7.0 0.00 0.03 0.03 40 1019.1
20260905210056 71 355 1.0 9.0 0.00 0.03 0.03 41 1019.2
20260905204545 71 344 9.0 11.0 0.00 0.03 0.03 41 1019.3
20260905203040 71 242 4.0 10.0 0.00 0.03 0.03 42 1019.3
20260905201540 71 5 6.0 10.0 0.00 0.03 0.03 43 1019.4
20260905200147 70 324 3.0 9.0 0.00 0.03 0.03 44 1019.4
20260905194536 70 329 4.0 8.0 0.00 0.03 0.03 43 1019.5
20260905193040 69 233 3.0 11.0 0.00 0.03 0.03 46 1019.6
20260905191534 70 291 3.0 9.0 0.00 0.03 0.03 46 1019.7
20260905190032 69 294 2.0 8.0 0.00 0.03 0.03 46 1019.9
20260905184535 68 264 3.0 10.0 0.00 0.03 0.03 48 1020.0
20260905183036 68 310 3.0 9.0 0.00 0.03 0.03 49 1020.2
20260905181524 66 296 3.0 6.0 0.00 0.03 0.03 51 1020.2
20260905180022 65 320 3.0 8.0 0.00 0.03 0.03 55 1020.3
20260905174522 65 288 3.0 9.0 0.00 0.03 0.03 55 1020.3
20260905173019 64 284 3.0 10.0 0.00 0.03 0.03 56 1020.4
20260905171516 63 301 3.0 10.0 0.00 0.03 0.03 58 1020.2
20260905170013 63 9 2.0 8.0 0.00 0.03 0.03 62 1020.3
20260905164512 63 285 2.0 6.0 0.00 0.03 0.03 67 1020.5
20260905163005 60 315 2.0 5.0 0.00 0.03 0.03 77 1020.4
20260905161501 59 288 3.0 8.0 0.00 0.03 0.03 80 1020.4
20260905160059 58 288 3.0 7.0 0.00 0.03 0.03 84 1020.3
20260905154602 57 350 1.0 3.0 0.00 0.03 0.03 86 1020.4
20260905153054 56 350 0.0 3.0 0.00 0.03 0.03 88 1020.1
20260905151601 55 350 0.0 5.0 0.00 0.03 0.03 89 1020.2
20260905150053 55 336 2.0 8.0 0.00 0.03 0.03 90 1020.1
20260905144550 53 300 1.0 3.0 0.01 0.03 0.03 90 1020.2
20260905143051 53 342 1.0 8.0 0.03 0.03 0.03 90 1019.8
20260905141547 52 340 4.0 11.0 0.03 0.03 0.03 89 1019.3
20260905140047 52 340 3.0 6.0 0.03 0.03 0.03 88 1019.9
20260905134543 52 313 2.0 8.0 0.02 0.02 0.02 86 1020.6
20260905133041 52 284 2.0 8.0 0.00 0.00 0.00 84 1020.6
20260905131551 52 260 4.0 8.0 0.00 0.00 0.00 81 1019.8
20260905130036 52 360 1.0 6.0 0.00 0.00 0.00 79 1019.1
20260905124536 51 350 3.0 5.0 0.00 0.00 0.00 79 1019.3
20260905123056 52 317 0.0 3.0 0.00 0.00 0.00 78 1019.5
20260905121535 53 322 2.0 5.0 0.00 0.00 0.00 76 1019.0
20260905120031 53 281 1.0 5.0 0.00 0.00 0.00 72 1019.3
20260905114529 53 294 1.0 7.0 0.00 0.00 0.00 73 1019.1
20260905113029 53 288 4.0 8.0 0.00 0.00 0.00 72 1018.7
20260905111527 53 291 2.0 7.0 0.00 0.00 0.00 73 1018.6
20260905110023 52 291 2.0 8.0 0.00 0.00 0.00 75 1018.6
20260905104521 52 298 4.0 10.0 0.00 0.00 0.00 75 1018.0
20260905103024 51 323 2.0 8.0 0.00 0.00 0.00 76 1018.1
20260905101519 51 288 2.0 4.0 0.00 0.00 0.00 75 1018.4
20260905100016 51 286 2.0 5.0 0.00 0.00 0.00 73 1018.3
20260905094517 51 282 1.0 2.0 0.00 0.00 0.00 74 1017.8
20260905093014 50 282 2.0 5.0 0.00 0.00 0.00 77 1018.1
20260905091513 48 281 1.0 3.0 0.00 0.00 0.00 81 1017.8
20260905090009 48 269 1.0 3.0 0.00 0.00 0.00 76 1017.5
20260905084505 49 269 0.0 2.0 0.00 0.00 0.00 76 1017.4
20260905083004 51 269 0.0 5.0 0.00 0.00 0.00 72 1017.0
20260905081503 52 21 1.0 4.0 0.00 0.00 0.00 71 1016.7
20260905080139 51 52 5.0 7.0 0.00 0.00 0.00 75 1017.0
20260905074558 49 134 0.0 5.0 0.00 0.00 0.00 76 1017.9
20260905073054 50 335 0.0 4.0 0.00 0.00 0.00 72 1017.9
20260905071551 54 334 1.0 3.0 0.00 0.00 0.00 67 1017.8
20260905070053 54 335 2.0 8.0 0.00 0.00 0.00 67 1017.4
20260905064552 54 333 3.0 6.0 0.00 0.00 0.00 70 1017.1
20260905063044 55 290 6.0 11.0 0.00 0.00 0.00 69 1017.2
20260905061540 56 314 2.0 5.0 0.00 0.00 0.00 64 1017.4
20260905060046 56 300 5.0 8.0 0.00 0.00 0.00 61 1017.3
20260905054538 57 290 4.0 7.0 0.00 0.00 0.00 60 1016.9
20260905053034 56 280 2.0 5.0 0.00 0.00 0.00 64 1016.9
20260905051548 54 280 1.0 2.0 0.00 0.00 0.00 64 1016.7